When you browse on this site, cookies collect data to enhance your experience and personalize the content and advertising you see.
Visit our Privacy Policy to learn more. By continuing to use the site, you agree to this use of cookies and data.
  • In Österreich
  • Länderverzeichnis
  • Für 7 Tage
  • Wassertemperatur
  • Satellitenkarten
  • Wetterkarte
  • News
  • Widgets
  • user-avatar
    Anmelden

    Stündliche Wetter Rincon

    Heute, 26 Mai, Sonntag

    Zeit Temperatur Niederschläge Wind Luftdruck Luftfeuchtigkeit
    00:00 +27°C° 0 mm 4 m/S 761 mmHg 91%
    01:00 +26°C° 0 mm 4 m/S 760 mmHg 91%
    02:00 +26°C° 0 mm 4 m/S 760 mmHg 91%
    03:00 +26°C° 0 mm 4 m/S 760 mmHg 91%
    04:00 +26°C° 0 mm 3 m/S 760 mmHg 91%
    05:00 +25°C° 0 mm 3 m/S 759 mmHg 92%
    06:00 +26°C° 0 mm 3 m/S 760 mmHg 89%
    07:00 +27°C° 0 mm 3 m/S 760 mmHg 86%
    08:00 +28°C° 0 mm 3 m/S 760 mmHg 83%
    09:00 +30°C° 0 mm 2 m/S 761 mmHg 76%
    10:00 +31°C° 0 mm 2 m/S 761 mmHg 69%
    11:00 +33°C° 0 mm 1 m/S 761 mmHg 63%
    12:00 +32°C° 0.1 mm 1 m/S 761 mmHg 67%
    13:00 +32°C° 0.1 mm 2 m/S 760 mmHg 72%
    14:00 +31°C° 0.1 mm 2 m/S 760 mmHg 76%
    15:00 +31°C° 0.8 mm 2 m/S 760 mmHg 77%
    16:00 +30°C° 0.8 mm 2 m/S 759 mmHg 79%
    17:00 +30°C° 0.8 mm 2 m/S 759 mmHg 80%
    18:00 +29°C° 0.9 mm 2 m/S 759 mmHg 83%
    19:00 +28°C° 0.9 mm 2 m/S 759 mmHg 85%
    20:00 +27°C° 0.9 mm 2 m/S 760 mmHg 88%
    21:00 +27°C° 0.2 mm 2 m/S 760 mmHg 88%
    22:00 +27°C° 0.2 mm 2 m/S 760 mmHg 89%
    23:00 +27°C° 0.2 mm 3 m/S 760 mmHg 90%

    Morgen, 27 Mai, Montag

    Zeit Temperatur Niederschläge Wind Luftdruck Luftfeuchtigkeit
    00:00 +27°C° 0.3 mm 2 m/S 760 mmHg 90%
    01:00 +27°C° 0.3 mm 2 m/S 760 mmHg 91%
    02:00 +26°C° 0.3 mm 2 m/S 759 mmHg 91%
    03:00 +26°C° 0.1 mm 2 m/S 759 mmHg 91%
    04:00 +26°C° 0.1 mm 2 m/S 759 mmHg 92%
    05:00 +26°C° 0.1 mm 2 m/S 759 mmHg 92%
    06:00 +27°C° 0.1 mm 3 m/S 759 mmHg 89%
    07:00 +28°C° 0.1 mm 3 m/S 759 mmHg 86%
    08:00 +28°C° 0.1 mm 3 m/S 760 mmHg 84%
    09:00 +29°C° 0.2 mm 2 m/S 760 mmHg 79%
    10:00 +31°C° 0.2 mm 2 m/S 760 mmHg 74%
    11:00 +32°C° 0.2 mm 2 m/S 760 mmHg 69%
    12:00 +31°C° 0.5 mm 2 m/S 760 mmHg 70%
    13:00 +31°C° 0.5 mm 2 m/S 760 mmHg 71%
    14:00 +31°C° 0.5 mm 2 m/S 759 mmHg 72%
    15:00 +31°C° 0.6 mm 2 m/S 759 mmHg 73%
    16:00 +31°C° 0.6 mm 2 m/S 759 mmHg 75%
    17:00 +30°C° 0.6 mm 2 m/S 758 mmHg 77%
    18:00 +29°C° 0.5 mm 2 m/S 758 mmHg 80%
    19:00 +28°C° 0.5 mm 2 m/S 759 mmHg 83%
    20:00 +28°C° 0.5 mm 2 m/S 759 mmHg 87%
    21:00 +27°C° 0 mm 2 m/S 759 mmHg 88%
    22:00 +27°C° 0 mm 2 m/S 760 mmHg 89%
    23:00 +27°C° 0 mm 2 m/S 760 mmHg 89%

    übermorgen, 28 Mai, Dienstag

    Zeit Temperatur Niederschläge Wind Luftdruck Luftfeuchtigkeit
    00:00 +27°C° 0.1 mm 2 m/S 760 mmHg 90%
    01:00 +27°C° 0.1 mm 2 m/S 759 mmHg 90%
    02:00 +27°C° 0.1 mm 2 m/S 759 mmHg 91%
    03:00 +27°C° 0.6 mm 2 m/S 759 mmHg 91%
    04:00 +27°C° 0.6 mm 2 m/S 759 mmHg 91%
    05:00 +27°C° 0.6 mm 2 m/S 758 mmHg 90%
    06:00 +27°C° 0.2 mm 2 m/S 759 mmHg 88%
    07:00 +28°C° 0.2 mm 3 m/S 759 mmHg 85%
    08:00 +29°C° 0.2 mm 3 m/S 759 mmHg 83%
    09:00 +29°C° 0.1 mm 3 m/S 760 mmHg 79%
    10:00 +30°C° 0.1 mm 4 m/S 760 mmHg 75%
    11:00 +32°C° 0.1 mm 4 m/S 760 mmHg 71%
    12:00 +32°C° 0.7 mm 4 m/S 760 mmHg 73%
    13:00 +30°C° 0.7 mm 4 m/S 759 mmHg 76%
    14:00 +30°C° 0.7 mm 4 m/S 759 mmHg 78%
    15:00 +30°C° 0.6 mm 4 m/S 759 mmHg 78%
    16:00 +30°C° 0.6 mm 3 m/S 758 mmHg 79%
    17:00 +29°C° 0.6 mm 3 m/S 758 mmHg 79%
    18:00 +29°C° 0.1 mm 3 m/S 758 mmHg 81%
    19:00 +28°C° 0.1 mm 2 m/S 758 mmHg 82%
    20:00 +27°C° 0.1 mm 2 m/S 759 mmHg 84%
    21:00 +27°C° 0 mm 2 m/S 759 mmHg 83%
    22:00 +27°C° 0 mm 2 m/S 759 mmHg 82%
    23:00 +27°C° 0 mm 2 m/S 759 mmHg 81%

    29 Mai, Mittwoch

    Zeit Temperatur Niederschläge Wind Luftdruck Luftfeuchtigkeit
    00:00 +27°C° 0 mm 2 m/S 759 mmHg 82%
    01:00 +27°C° 0 mm 2 m/S 759 mmHg 82%
    02:00 +27°C° 0 mm 2 m/S 758 mmHg 83%
    03:00 +27°C° 0.2 mm 2 m/S 759 mmHg 84%
    04:00 +27°C° 0.2 mm 2 m/S 759 mmHg 86%
    05:00 +27°C° 0.2 mm 1 m/S 759 mmHg 88%
    06:00 +27°C° 0.5 mm 2 m/S 759 mmHg 85%
    07:00 +28°C° 0.5 mm 2 m/S 759 mmHg 83%
    08:00 +28°C° 0.5 mm 2 m/S 760 mmHg 81%
    09:00 +29°C° 0.7 mm 2 m/S 760 mmHg 79%
    10:00 +30°C° 0.7 mm 3 m/S 760 mmHg 77%
    11:00 +30°C° 0.7 mm 3 m/S 760 mmHg 74%
    12:00 +29°C° 1.5 mm 3 m/S 760 mmHg 80%
    13:00 +28°C° 1.5 mm 4 m/S 760 mmHg 85%
    14:00 +27°C° 1.5 mm 5 m/S 760 mmHg 91%
    15:00 +27°C° 2.2 mm 5 m/S 759 mmHg 91%
    16:00 +26°C° 2.2 mm 5 m/S 759 mmHg 92%
    17:00 +26°C° 2.2 mm 5 m/S 759 mmHg 92%
    18:00 +26°C° 0.9 mm 5 m/S 759 mmHg 92%
    19:00 +26°C° 0.9 mm 6 m/S 760 mmHg 91%
    20:00 +24°C° 0.9 mm 6 m/S 760 mmHg 91%
    21:00 +24°C° 0.1 mm 6 m/S 760 mmHg 89%
    22:00 +25°C° 0.1 mm 5 m/S 760 mmHg 88%
    23:00 +25°C° 0.1 mm 5 m/S 761 mmHg 87%

    30 Mai, Donnerstag

    Zeit Temperatur Niederschläge Wind Luftdruck Luftfeuchtigkeit
    00:00 +25°C° 0.1 mm 5 m/S 760 mmHg 87%
    01:00 +25°C° 0.1 mm 5 m/S 760 mmHg 87%
    02:00 +25°C° 0.1 mm 4 m/S 759 mmHg 88%
    03:00 +25°C° 0.2 mm 4 m/S 759 mmHg 88%
    04:00 +25°C° 0.2 mm 4 m/S 759 mmHg 89%
    05:00 +25°C° 0.2 mm 5 m/S 759 mmHg 89%
    06:00 +25°C° 0.4 mm 4 m/S 759 mmHg 89%
    07:00 +25°C° 0.4 mm 4 m/S 760 mmHg 88%
    08:00 +25°C° 0.4 mm 4 m/S 760 mmHg 88%
    09:00 +25°C° 2 mm 4 m/S 760 mmHg 89%
    10:00 +25°C° 2 mm 5 m/S 761 mmHg 90%
    11:00 +25°C° 2 mm 5 m/S 761 mmHg 91%
    12:00 +26°C° 0.4 mm 5 m/S 761 mmHg 90%
    13:00 +26°C° 0.4 mm 5 m/S 760 mmHg 89%
    14:00 +26°C° 0.4 mm 4 m/S 760 mmHg 88%
    15:00 +26°C° 0.1 mm 4 m/S 760 mmHg 86%
    16:00 +26°C° 0.1 mm 4 m/S 760 mmHg 85%
    17:00 +27°C° 0.1 mm 4 m/S 759 mmHg 84%
    18:00 +26°C° 0 mm 4 m/S 760 mmHg 84%
    19:00 +25°C° 0 mm 4 m/S 760 mmHg 84%
    20:00 +25°C° 0 mm 4 m/S 760 mmHg 85%
    21:00 +25°C° 0 mm 4 m/S 760 mmHg 83%
    22:00 +24°C° 0 mm 3 m/S 760 mmHg 82%
    23:00 +24°C° 0 mm 3 m/S 761 mmHg 81%

    31 Mai, Freitag

    Zeit Temperatur Niederschläge Wind Luftdruck Luftfeuchtigkeit
    00:00 +24°C° 0 mm 3 m/S 760 mmHg 80%
    01:00 +24°C° 0 mm 3 m/S 760 mmHg 80%
    02:00 +22°C° 0 mm 3 m/S 759 mmHg 80%
    03:00 +22°C° 0 mm 3 m/S 759 mmHg 81%
    04:00 +22°C° 0 mm 3 m/S 759 mmHg 81%
    05:00 +22°C° 0 mm 4 m/S 759 mmHg 82%
    06:00 +25°C° 0 mm 4 m/S 759 mmHg 80%
    07:00 +26°C° 0 mm 4 m/S 760 mmHg 78%
    08:00 +27°C° 0 mm 3 m/S 760 mmHg 76%
    09:00 +28°C° 0 mm 4 m/S 760 mmHg 71%
    10:00 +30°C° 0 mm 4 m/S 760 mmHg 66%
    11:00 +32°C° 0 mm 4 m/S 760 mmHg 61%
    12:00 +32°C° 0.3 mm 4 m/S 760 mmHg 63%
    13:00 +32°C° 0.3 mm 4 m/S 760 mmHg 65%
    14:00 +32°C° 0.3 mm 4 m/S 759 mmHg 67%
    15:00 +32°C° 0.5 mm 4 m/S 759 mmHg 69%
    16:00 +30°C° 0.5 mm 4 m/S 759 mmHg 70%
    17:00 +30°C° 0.5 mm 4 m/S 758 mmHg 72%
    18:00 +29°C° 0.3 mm 4 m/S 759 mmHg 75%
    19:00 +28°C° 0.3 mm 4 m/S 759 mmHg 79%
    20:00 +26°C° 0.3 mm 4 m/S 760 mmHg 82%
    21:00 +26°C° 0 mm 4 m/S 760 mmHg 83%
    22:00 +26°C° 0 mm 4 m/S 760 mmHg 85%
    23:00 +25°C° 0 mm 4 m/S 760 mmHg 86%
    Mehr zeigen